Regional Weather Roundup
Issued by NWS

Home | Current Version | Previous Version | Text Only | Print | Product List | Glossary Off
Versions: 1 2 3 4 5 6 7 8 9 10 11 12 13 14 15 16 17 18 19 20 21 22 23 24 25 26 27 28 29 30 31 32 33 34 35 36 37 38 39 40 41 42 43 44 45 46 47 48 49

000
ASUS45 KBOU 162107
RWRCO

WEATHER ROUNDUP FOR COLORADO
NATIONAL WEATHER SERVICE DENVER/BOULDER CO
300 PM MDT TUE SEP 16 2014

NOTE: "FAIR" INDICATES FEW OR NO CLOUDS BELOW 12000 FEET WITH NO
SIGNIFICANT WEATHER AND/OR OBSTRUCTIONS TO VISIBILITY.

COZ001>005-013-030-031-162200-
...NORTHWEST COLORADO...

CITY           SKY/WX    TMP DP  RH WIND       PRES   REMARKS
CRAIG          SUNNY     83  33  16 NW8       30.21F
HAYDEN         NOT AVBL
MEEKER         MOSUNNY   83  25  12 W13G20    30.22F
MOUNT WERNER   NOT AVBL
STEAMBOAT SPGS MOSUNNY   77  31  18 SW9       30.25F
WALDEN         PTSUNNY   70  28  21 N9        30.34F
$$

COZ006>008-011-162200-
...WEST CENTRAL VALLEYS...

CITY           SKY/WX    TMP DP  RH WIND       PRES   REMARKS
GRAND JUNCTION SUNNY     84  44  24 MISG      30.11F
MONTROSE       MOSUNNY   85  35  16 W8        30.19F
EAGLE          MOSUNNY   81  36  19 CALM      30.25F
RIFLE          MOSUNNY   80  43  26 N8        30.17F
DELTA          MOSUNNY   88  36  15 SW6       30.14F
NUCLA          MOSUNNY   82  34  17 N3        30.23F
$$

COZ017>023-064>068-162200-
...SOUTHWEST COLORADO...

CITY           SKY/WX    TMP DP  RH WIND       PRES   REMARKS
DURANGO        MOSUNNY   81  43  26 SW9G18    30.24F
CORTEZ         SUNNY     84  47  27 SE8       30.19F
PAGOSA SPRINGS PTSUNNY   73  34  23 N14G24    30.31S
TELLURIDE      NOT AVBL
WOLF CREEK PAS CLOUDY    54  34  47 W10       30.61F
$$

COZ009-010-012-014-032>034-037-058>063-162200-
...CENTRAL COLORADO...

CITY           SKY/WX    TMP DP  RH WIND       PRES   REMARKS
ASPEN          MOSUNNY   73  31  21 N12G18    30.31
BUENA VISTA    MOSUNNY   75  28  17 E3        30.31F
COPPER MTN     CLOUDY    61  27  27 W17G29    30.64F
BERTHOUD PASS  FAIR      50  48  93 NW13G24   30.68S
COTTONWOOD PAS MOSUNNY   73  23  15 E3        30.46F
GUNNISON       MOSUNNY   73  36  25 CALM      30.33F
KREMMLING      MOSUNNY   75  28  17 SE3       30.31F
LEADVILLE      MOSUNNY   67  26  21 NW10      30.46F
MONARCH PASS   PTSUNNY   55  32  41 NW8       30.74S
SALIDA         MOSUNNY   81  31  16 E6        30.34F
SUNLIGHT       MOSUNNY   64  34  32 CALM      30.58F
WILKERSON PASS NOT AVBL
$$

COZ069>075-162200-
...SAN LUIS VALLEY/SANGRE DE CRISTO MOUNTAINS...

CITY           SKY/WX    TMP DP  RH WIND       PRES   REMARKS
ALAMOSA        SUNNY     79  34  19 N7        30.29F
LA VETA PASS   NOT AVBL
SAGUACHE       MOSUNNY   79  34  19 S13       30.31F
$$

COZ035-036-038>040-162200-
...NORTHERN COLORADO FRONT RANGE...

CITY           SKY/WX    TMP DP  RH WIND       PRES   REMARKS
DENVER INTL AP MOSUNNY   87  34  15 VRB7      30.13F
DMNS CITY PARK   N/A     86  33  14 E7        30.11F
AURORA         MOSUNNY   85  36  17 NE6       30.15F
FRONT RANGE AP MOSUNNY   86  34  15 NE5       30.15F
ERIE MUNI ARPT MOSUNNY   88  31  13 CALM      30.10F
BOULDER MUN AP MOSUNNY   82  39  21 SE3       30.11F
CENTENNIAL     MOSUNNY   84  34  16 VRB5      30.16F
BROOMFIELD     MOSUNNY   86  36  16 E5        30.15F
FORT COLLINS   SUNNY     88  37  16 NW3       30.08F
LONGMONT       SUNNY     83  40  21 E5        30.11F
$$

COZ041-046-047-076>085-087-088-162200-
...PIKES PEAK/PALMER DIVIDE AND SOUTHERN FOOTHILLS...

CITY           SKY/WX    TMP DP  RH WIND       PRES   REMARKS
COLO. SPRINGS  MOSUNNY   88  30  12 VRB6      30.18F
A. F. ACADEMY  SUNNY     81  31  16 SW1       30.19F
ELLICOTT       NOT AVBL
FALCON         MOSUNNY   83  31  15 CALM      30.24F
FORT CARSON    MOSUNNY   83  33  16 CALM      30.16F
LIMON          SUNNY     85  31  14 W12G20    30.14F
MONUMENT HILL  MOSUNNY   79  34  19 N9        30.25F
TRINIDAD       MOSUNNY   85  39  19 E8        30.16F
$$

COZ042>045-048>051-090-091-162200-
...NORTHEAST COLORADO...

CITY           SKY/WX    TMP DP  RH WIND       PRES   REMARKS
GREELEY ARPT   SUNNY     90  34  13 NW12G18   30.07F
AKRON          SUNNY     87  34  15 NW25G33   30.07F
BURLINGTON     SUNNY     88  43  20 N6        30.05F
WRAY           MOSUNNY   92  40  16 NW12G18   30.00F
STERLING       SUNNY     91  45  19 N13G20    30.03S
HOLYOKE        MOSUNNY   88  46  23 NW10      30.01S
FORT MORGAN    SUNNY     89  31  12 N17G28    30.07S
$$

COZ086-089-092>099-162200-
...SOUTHEAST COLORADO...

CITY           SKY/WX    TMP DP  RH WIND       PRES   REMARKS
PUEBLO         MOSUNNY   90  34  13 SE12      30.06F
LA JUNTA       SUNNY     88  48  25 SE7       30.06F
LAMAR          SUNNY     86  53  32 VRB5      30.03F
SPRINGFIELD      N/A     87  55  33 S13G20    30.07F
$$



USA.gov is the U.S. government's official web portal to all federal, state and local government web resources and services.